Location: Berlise
(49.6641°N, 4.1077°E)
Time: 18:29:24
(UTC+00:00)

Cosmos 1408 - Pass Details

Date: 27 January 2021
Orbit: 469 x 492 km, 82.6° (Epoch: 26 February)

Event Time Altitude Azimuth Distance (km) Brightness Sun altitude
Rises 06:25:57 0° 348° (NNW) 2,533 5.9 -9.3°
Reaches altitude 10° 06:28:03 10° 345° (NNW) 1,652 4.9 -9.0°
Maximum altitude 06:31:37 68° 264° (W) 519 2.5 -8.4°
Drops below altitude 10° 06:35:12 10° 180° (S) 1,649 5.5 -7.9°
Sets 06:37:18 0° 178° (S) 2,527 6.5 -7.5°
